Bookmark and Share
Track history (hours):
 

Mandoudi

Last reported at 2014-Apr-23 06:33 UTC. Time now 2014-Apr-23 06:47 UTC.
Position N 37°56' E 023°38'.

Length 60 m; draft 4.6 m.

Type: Ship (hazmat cat A). MMSI: 237470200.

NotesDate/timePositionNaut miles runAvg speedWind from/ knotsBaromVisibWave heightAir tempDewpointWater temp
2014-Apr-23 06:33N 37°56' E 023°38'1 1.5
2014-Apr-23 05:33N 37°57' E 023°36'5 4.3
2014-Apr-23 04:22N 38°02' E 023°36'0 0.0
2014-Apr-23 01:25N 38°02' E 023°36'1 0.3
2014-Apr-22 23:22N 38°02' E 023°35'0 0.0
2014-Apr-22 22:31N 38°02' E 023°35'0 0.0
2014-Apr-22 21:09N 38°02' E 023°35'0 0.0
2014-Apr-22 19:27N 38°02' E 023°35'0 0.0
2014-Apr-22 18:27N 38°02' E 023°35'0 0.0
2014-Apr-22 16:30N 38°02' E 023°35'3 3.5
2014-Apr-22 15:30N 37°59' E 023°33'5 5.0
2014-Apr-22 14:33N 37°57' E 023°38'0 0.0
2014-Apr-22 13:33N 37°57' E 023°38'0 0.0
2014-Apr-22 12:33N 37°57' E 023°38'0 0.0
2014-Apr-22 11:33N 37°57' E 023°38'0 0.0
2014-Apr-22 10:33N 37°57' E 023°38'0 0.0
2014-Apr-22 09:33N 37°57' E 023°38'0 0.0
2014-Apr-22 08:33N 37°57' E 023°38'0 0.0
2014-Apr-22 07:33N 37°57' E 023°38'1 1.4
2014-Apr-22 06:33N 37°58' E 023°37'0 0.0
2014-Apr-22 05:33N 37°58' E 023°37'0 0.0
2014-Apr-22 04:33N 37°58' E 023°37'0 0.0
2014-Apr-22 03:33N 37°58' E 023°37'0 0.0
2014-Apr-22 02:33N 37°58' E 023°37'0 0.0
2014-Apr-22 01:33N 37°58' E 023°37'0 0.0
2014-Apr-22 00:33N 37°58' E 023°37'0 0.0
2014-Apr-21 23:34N 37°58' E 023°37'0 0.0
2014-Apr-21 22:33N 37°58' E 023°37'0 0.0
2014-Apr-21 21:33N 37°58' E 023°37'0 0.0
2014-Apr-21 20:33N 37°58' E 023°37'0 0.0
2014-Apr-21 19:33N 37°58' E 023°37'0 0.0
2014-Apr-21 18:33N 37°58' E 023°37'0 0.0
2014-Apr-21 17:33N 37°58' E 023°37'0 0.0
2014-Apr-21 16:33N 37°58' E 023°37'0 0.0
2014-Apr-21 15:33N 37°58' E 023°37'0 0.0
2014-Apr-21 14:33N 37°58' E 023°37'0 0.0
2014-Apr-21 13:33N 37°58' E 023°37'1 1.3
2014-Apr-21 12:29N 37°57' E 023°38'0 0.0
2014-Apr-21 11:33N 37°57' E 023°38'0 0.0
2014-Apr-21 10:34N 37°57' E 023°38'0 0.0
2014-Apr-21 09:33N 37°57' E 023°38'0 0.0
2014-Apr-21 08:33N 37°57' E 023°38'2 1.8
2014-Apr-21 07:33N 37°57' E 023°36'1 0.6
2014-Apr-21 06:33N 37°58' E 023°37'0 0.0
2014-Apr-21 05:33N 37°58' E 023°37'0 0.0
2014-Apr-21 04:33N 37°58' E 023°37'0 0.0
2014-Apr-21 03:33N 37°58' E 023°37'0 0.0
2014-Apr-21 02:33N 37°58' E 023°37'0 0.0
2014-Apr-21 01:33N 37°58' E 023°37'0 0.0
2014-Apr-21 00:33N 37°58' E 023°37'0 0.0
2014-Apr-20 23:33N 37°58' E 023°37'0 0.0
2014-Apr-20 22:33N 37°58' E 023°37'0 0.0
2014-Apr-20 21:33N 37°58' E 023°37'0 0.0
2014-Apr-20 20:33N 37°58' E 023°37'0 0.0
2014-Apr-20 19:33N 37°58' E 023°37'0 0.0
2014-Apr-20 18:33N 37°58' E 023°37'0 0.0
2014-Apr-20 17:34N 37°58' E 023°37'0 0.0
2014-Apr-20 16:33N 37°58' E 023°37'0 0.0
2014-Apr-20 15:33N 37°58' E 023°37'0 0.0
2014-Apr-20 14:33N 37°58' E 023°37'0 0.0
2014-Apr-20 13:33N 37°58' E 023°37'0 0.0
2014-Apr-20 12:33N 37°58' E 023°37'0 0.0
2014-Apr-20 11:34N 37°58' E 023°37'0 0.0
2014-Apr-20 10:33N 37°58' E 023°37'0 0.0
2014-Apr-20 09:33N 37°58' E 023°37'0 0.0
2014-Apr-20 08:33N 37°58' E 023°37'0 0.0
2014-Apr-20 07:33N 37°58' E 023°37'0 0.0
2014-Apr-20 06:33N 37°58' E 023°37'0 0.0
2014-Apr-20 05:33N 37°58' E 023°37'0 0.0
2014-Apr-20 04:33N 37°58' E 023°37'0 0.0
2014-Apr-20 03:33N 37°58' E 023°37'0 0.0
2014-Apr-20 02:33N 37°58' E 023°37'0 0.0
2014-Apr-20 01:33N 37°58' E 023°37'0 0.0
2014-Apr-20 00:33N 37°58' E 023°37'0 0.0
2014-Apr-19 23:33N 37°58' E 023°37'0 0.0
2014-Apr-19 22:33N 37°58' E 023°37'0 0.0
2014-Apr-19 21:33N 37°58' E 023°37'0 0.0
2014-Apr-19 20:33N 37°58' E 023°37'0 0.0
2014-Apr-19 19:33N 37°58' E 023°37'0 0.0
2014-Apr-19 18:33N 37°58' E 023°37'0 0.0
2014-Apr-19 17:33N 37°58' E 023°37'0 0.0
2014-Apr-19 16:33N 37°58' E 023°37'0 0.0
2014-Apr-19 15:32N 37°58' E 023°37'0 0.0
2014-Apr-19 14:33N 37°58' E 023°37'0 0.0
2014-Apr-19 13:33N 37°58' E 023°37'0 0.0
2014-Apr-19 12:34N 37°58' E 023°37'0 0.0
2014-Apr-19 11:33N 37°58' E 023°37'0 0.0
2014-Apr-19 10:33N 37°58' E 023°37'0 0.0
2014-Apr-19 09:33N 37°58' E 023°37'0 0.0
2014-Apr-19 08:33N 37°58' E 023°37'0 0.0
2014-Apr-19 07:33N 37°58' E 023°37'0 0.0
2014-Apr-19 06:33N 37°58' E 023°37'0 0.0
2014-Apr-19 05:33N 37°58' E 023°37'0 0.0
2014-Apr-19 04:33N 37°58' E 023°37'0 0.0
2014-Apr-19 03:33N 37°58' E 023°37'0 0.0
2014-Apr-19 02:33N 37°58' E 023°37'0 0.0
2014-Apr-19 01:33N 37°58' E 023°37'0 0.0
2014-Apr-19 00:33N 37°58' E 023°37'0 0.0
2014-Apr-18 23:33N 37°58' E 023°37'0 0.0
2014-Apr-18 22:33N 37°58' E 023°37'0 0.0
2014-Apr-18 21:33N 37°58' E 023°37'0 0.0
2014-Apr-18 20:33N 37°58' E 023°37'0 0.0
2014-Apr-18 19:33N 37°58' E 023°37'0 0.0
2014-Apr-18 18:33N 37°58' E 023°37'0 0.0
2014-Apr-18 17:33N 37°58' E 023°37'0 0.0
2014-Apr-18 16:32N 37°58' E 023°37'0 0.0
2014-Apr-18 15:33N 37°58' E 023°37'0 0.0
2014-Apr-18 14:32N 37°58' E 023°37'0 0.0
2014-Apr-18 13:32N 37°58' E 023°37'0 0.0
2014-Apr-18 12:28N 37°58' E 023°37'0 0.0
2014-Apr-18 11:32N 37°58' E 023°37'0 0.0
2014-Apr-18 10:32N 37°58' E 023°37'0 0.0
2014-Apr-18 09:22N 37°58' E 023°37'0 0.0
2014-Apr-18 08:33N 37°58' E 023°37'0 0.0
2014-Apr-18 07:33N 37°58' E 023°37'0 0.0
2014-Apr-18 06:33N 37°58' E 023°37'0 0.0
2014-Apr-18 05:32N 37°58' E 023°37'0 0.0
2014-Apr-18 04:33N 37°58' E 023°37'0 0.0
2014-Apr-18 03:33N 37°58' E 023°37'0 0.0
2014-Apr-18 02:31N 37°58' E 023°37'0 0.0
2014-Apr-18 01:33N 37°58' E 023°37'0 0.0
2014-Apr-18 00:33N 37°58' E 023°37'0 0.0
2014-Apr-17 23:34N 37°58' E 023°37'0 0.0
2014-Apr-17 22:33N 37°58' E 023°37'0 0.0
2014-Apr-17 21:33N 37°58' E 023°37'0 0.0
2014-Apr-17 20:33N 37°58' E 023°37'0 0.0
2014-Apr-17 19:33N 37°58' E 023°37'0 0.0
2014-Apr-17 18:33N 37°58' E 023°37'0 0.0
2014-Apr-17 17:33N 37°58' E 023°37'0 0.0
2014-Apr-17 16:33N 37°58' E 023°37'0 0.0
2014-Apr-17 15:33N 37°58' E 023°37'0 0.0
2014-Apr-17 14:26N 37°58' E 023°37'0 0.1
2014-Apr-17 13:27N 37°57' E 023°37'7 2.3
2014-Apr-17 10:33N 38°02' E 023°31'0 0.0
2014-Apr-17 09:32N 38°02' E 023°31'0 0.0
2014-Apr-17 05:33N 38°02' E 023°31'3 2.8
2014-Apr-17 04:27N 37°60' E 023°33'4 4.1
2014-Apr-17 03:32N 37°58' E 023°37'0 0.0
2014-Apr-17 02:33N 37°58' E 023°37'0 0.0
2014-Apr-17 01:33N 37°58' E 023°37'0 0.0
2014-Apr-17 00:31N 37°58' E 023°37'0 0.0
2014-Apr-16 23:33N 37°58' E 023°37'0 0.0
2014-Apr-16 22:29N 37°58' E 023°37'2 1.7
2014-Apr-16 21:33N 37°57' E 023°38'0 0.1
2014-Apr-16 20:32N 37°57' E 023°38'2 2.0
2014-Apr-16 19:33N 37°57' E 023°36'0 0.4
2014-Apr-16 18:31N 37°58' E 023°37'0 0.0
2014-Apr-16 17:32N 37°58' E 023°37'0 0.0
2014-Apr-16 16:26N 37°58' E 023°37'0 0.0
2014-Apr-16 15:32N 37°58' E 023°37'0 0.0
2014-Apr-16 14:33N 37°58' E 023°37'0 0.0
2014-Apr-16 13:26N 37°58' E 023°37'0 0.0
2014-Apr-16 12:33N 37°58' E 023°37'1 0.9
2014-Apr-16 11:33N 37°57' E 023°36'2 1.7
2014-Apr-16 10:33N 37°56' E 023°38'0 0.0
2014-Apr-16 09:33N 37°56' E 023°38'0 0.0
2014-Apr-16 08:33N 37°56' E 023°38'0 0.0
2014-Apr-16 07:33N 37°56' E 023°38'0 0.0
2014-Apr-16 06:31N 37°56' E 023°38'1 1.5
2014-Apr-16 05:34N 37°58' E 023°37'0 0.0
2014-Apr-16 04:30N 37°58' E 023°37'0 0.0
2014-Apr-16 03:33N 37°58' E 023°37'0 0.0
2014-Apr-16 02:31N 37°58' E 023°37'0 0.0
2014-Apr-16 01:30N 37°58' E 023°37'0 0.0
2014-Apr-16 00:33N 37°58' E 023°37'0 0.0
2014-Apr-15 23:26N 37°58' E 023°37'0 0.0
2014-Apr-15 22:33N 37°58' E 023°37'0 0.0
2014-Apr-15 21:31N 37°58' E 023°37'0 0.0
2014-Apr-15 20:29N 37°58' E 023°37'0 0.0
2014-Apr-15 19:32N 37°58' E 023°37'0 0.0
2014-Apr-15 18:33N 37°58' E 023°37'0 0.0
2014-Apr-15 17:30N 37°58' E 023°37'0 0.0
2014-Apr-15 16:27N 37°58' E 023°37'0 0.0
2014-Apr-15 15:32N 37°58' E 023°37'0 0.0
2014-Apr-15 14:33N 37°58' E 023°37'0 0.0
2014-Apr-15 12:34N 37°58' E 023°37'0 0.0
2014-Apr-15 11:32N 37°58' E 023°37'0 0.0
2014-Apr-15 10:30N 37°58' E 023°37'0 0.0
2014-Apr-15 09:33N 37°58' E 023°37'1 0.9
2014-Apr-15 08:34N 37°57' E 023°36'2 0.9
2014-Apr-15 06:32N 37°57' E 023°38'0 0.0
2014-Apr-15 05:34N 37°57' E 023°38'3 1.4
2014-Apr-15 03:33N 37°57' E 023°35'0 0.0
2014-Apr-14 16:33N 37°57' E 023°35'1 0.7
2014-Apr-14 15:33N 37°57' E 023°36'2 1.7
2014-Apr-14 14:32N 37°57' E 023°38'0 0.1
2014-Apr-14 11:32N 37°57' E 023°38'0 0.0
2014-Apr-14 10:32N 37°57' E 023°38'0 0.0
2014-Apr-14 09:33N 37°57' E 023°38'3 3.2
2014-Apr-14 08:33N 37°57' E 023°34'0 0.1
2014-Apr-14 05:33N 37°57' E 023°34'2 0.3
2014-Apr-13 22:33N 37°58' E 023°37'0 0.0
2014-Apr-13 21:33N 37°58' E 023°37'0 0.0
2014-Apr-13 20:33N 37°58' E 023°37'0 0.0
2014-Apr-13 19:33N 37°58' E 023°37'0 0.0
2014-Apr-13 18:33N 37°58' E 023°37'0 0.0
2014-Apr-13 17:33N 37°58' E 023°37'0 0.0
2014-Apr-13 16:33N 37°58' E 023°37'0 0.0
2014-Apr-13 15:32N 37°58' E 023°37'0 0.0
2014-Apr-13 14:33N 37°58' E 023°37'0 0.0
2014-Apr-13 13:33N 37°58' E 023°37'0 0.0
2014-Apr-13 12:33N 37°58' E 023°37'0 0.0
2014-Apr-13 11:33N 37°58' E 023°37'0 0.0
2014-Apr-13 10:33N 37°58' E 023°37'2 1.7
2014-Apr-13 09:33N 37°57' E 023°35'5 4.2
2014-Apr-13 08:23N 37°53' E 023°32'0 0.1
2014-Apr-13 07:33N 37°52' E 023°32'0 0.0
2014-Apr-13 06:33N 37°52' E 023°32'  

Dump ship's entire track history

sailing weather and tide predictions

Mandoudi — SV3198 — position and weather